• In Deutschland
  • Länderverzeichnis
  • Für 7 Tage
  • Wassertemperatur
  • Satellitenkarten
  • Wetterkarte
  • Widgets
  • user-avatar
    Anmelden

    Stündliche Wetter Idar-Oberstein

    Heute, 12 Dezember, Dienstag

    Zeit Temperatur Niederschläge Wind Luftdruck Luftfeuchtigkeit
    00:00 0°C° 0 mm 7 m/S 710 mmHg 86%
    01:00 -1°C° 0,1 mm 7 m/S 711 mmHg 84%
    02:00 -2°C° 0,1 mm 7 m/S 713 mmHg 83%
    03:00 -2°C° 0,1 mm 7 m/S 715 mmHg 82%
    04:00 -2°C° 0 mm 6 m/S 716 mmHg 83%
    05:00 -2°C° 0 mm 6 m/S 718 mmHg 84%
    06:00 -1°C° 0 mm 5 m/S 720 mmHg 86%
    07:00 -1°C° 0 mm 5 m/S 721 mmHg 87%
    08:00 -1°C° 0 mm 5 m/S 722 mmHg 87%
    09:00 -1°C° 0 mm 5 m/S 723 mmHg 87%
    10:00 -1°C° 0 mm 5 m/S 724 mmHg 86%
    11:00 -1°C° 0 mm 5 m/S 725 mmHg 84%
    12:00 0°C° 0 mm 5 m/S 725 mmHg 82%
    13:00 0°C° 0,1 mm 5 m/S 726 mmHg 82%
    14:00 0°C° 0,1 mm 4 m/S 726 mmHg 81%
    15:00 -1°C° 0,1 mm 4 m/S 727 mmHg 81%
    16:00 -1°C° 0 mm 4 m/S 727 mmHg 84%
    17:00 -1°C° 0 mm 3 m/S 728 mmHg 86%
    18:00 -2°C° 0 mm 3 m/S 728 mmHg 89%
    19:00 -2°C° 0 mm 2 m/S 729 mmHg 90%
    20:00 -2°C° 0 mm 2 m/S 729 mmHg 92%
    21:00 -2°C° 0 mm 2 m/S 729 mmHg 93%
    22:00 -2°C° 0 mm 2 m/S 729 mmHg 94%
    23:00 -2°C° 0 mm 3 m/S 729 mmHg 94%

    Morgen, 13 Dezember, Mittwoch

    Zeit Temperatur Niederschläge Wind Luftdruck Luftfeuchtigkeit
    00:00 -2°C° 0 mm 3 m/S 730 mmHg 95%
    01:00 -2°C° 0 mm 3 m/S 729 mmHg 94%
    02:00 -3°C° 0 mm 4 m/S 729 mmHg 92%
    03:00 -2°C° 0 mm 4 m/S 729 mmHg 91%
    04:00 -2°C° 0 mm 4 m/S 729 mmHg 90%
    05:00 -2°C° 0 mm 5 m/S 728 mmHg 90%
    06:00 -2°C° 0 mm 5 m/S 728 mmHg 89%
    07:00 -1°C° 0 mm 5 m/S 727 mmHg 87%
    08:00 -2°C° 0 mm 6 m/S 727 mmHg 86%
    09:00 -2°C° 0 mm 6 m/S 726 mmHg 85%
    10:00 -1°C° 0,4 mm 6 m/S 725 mmHg 84%
    11:00 -1°C° 0,4 mm 7 m/S 724 mmHg 83%
    12:00 0°C° 0,4 mm 7 m/S 724 mmHg 83%
    13:00 0°C° 1 mm 7 m/S 723 mmHg 84%
    14:00 0°C° 1 mm 7 m/S 722 mmHg 86%
    15:00 0°C° 1 mm 7 m/S 721 mmHg 88%
    16:00 0°C° 0,4 mm 7 m/S 720 mmHg 89%
    17:00 +2°C° 0,4 mm 7 m/S 719 mmHg 89%
    18:00 +2°C° 0,4 mm 7 m/S 719 mmHg 90%
    19:00 +1°C° 0,9 mm 8 m/S 717 mmHg 90%
    20:00 +2°C° 0,9 mm 8 m/S 716 mmHg 90%
    21:00 +2°C° 0,9 mm 8 m/S 715 mmHg 90%
    22:00 +2°C° 1,1 mm 8 m/S 715 mmHg 86%
    23:00 +3°C° 1,1 mm 7 m/S 715 mmHg 83%

    übermorgen, 14 Dezember, Donnerstag

    Zeit Temperatur Niederschläge Wind Luftdruck Luftfeuchtigkeit
    00:00 +2°C° 1,1 mm 6 m/S 715 mmHg 80%
    01:00 +1°C° 0,4 mm 8 m/S 715 mmHg 76%
    02:00 0°C° 0,4 mm 9 m/S 716 mmHg 73%
    03:00 0°C° 0,4 mm 10 m/S 716 mmHg 70%
    04:00 -1°C° 0 mm 9 m/S 718 mmHg 71%
    05:00 -2°C° 0 mm 8 m/S 719 mmHg 72%
    06:00 -2°C° 0 mm 7 m/S 720 mmHg 73%
    07:00 -2°C° 0 mm 7 m/S 720 mmHg 75%
    08:00 -2°C° 0 mm 7 m/S 720 mmHg 76%
    09:00 -1°C° 0 mm 7 m/S 721 mmHg 77%
    10:00 -1°C° 0,3 mm 7 m/S 720 mmHg 77%
    11:00 0°C° 0,3 mm 7 m/S 720 mmHg 78%
    12:00 0°C° 0,3 mm 7 m/S 719 mmHg 78%
    13:00 0°C° 0,4 mm 7 m/S 718 mmHg 79%
    14:00 +1°C° 0,4 mm 6 m/S 717 mmHg 81%
    15:00 +2°C° 0,4 mm 6 m/S 716 mmHg 82%
    16:00 +2°C° 0,6 mm 6 m/S 715 mmHg 85%
    17:00 +2°C° 0,6 mm 6 m/S 713 mmHg 88%
    18:00 +2°C° 0,6 mm 6 m/S 712 mmHg 90%
    19:00 +2°C° 0,9 mm 7 m/S 711 mmHg 88%
    20:00 +2°C° 0,9 mm 7 m/S 711 mmHg 86%
    21:00 +1°C° 0,9 mm 8 m/S 711 mmHg 83%
    22:00 0°C° 0 mm 8 m/S 712 mmHg 82%
    23:00 -1°C° 0 mm 7 m/S 712 mmHg 81%

    15 Dezember, Freitag

    Zeit Temperatur Niederschläge Wind Luftdruck Luftfeuchtigkeit
    00:00 -2°C° 0 mm 7 m/S 713 mmHg 80%
    01:00 -2°C° 0 mm 6 m/S 714 mmHg 81%
    02:00 -1°C° 0 mm 5 m/S 715 mmHg 83%
    03:00 -2°C° 0 mm 5 m/S 715 mmHg 84%
    04:00 -2°C° 0 mm 4 m/S 715 mmHg 86%
    05:00 -1°C° 0 mm 4 m/S 716 mmHg 88%
    06:00 -1°C° 0 mm 4 m/S 716 mmHg 90%
    07:00 -1°C° 0,6 mm 4 m/S 716 mmHg 89%
    08:00 -1°C° 0,6 mm 5 m/S 716 mmHg 89%
    09:00 0°C° 0,6 mm 5 m/S 716 mmHg 89%
    10:00 0°C° 0,6 mm 5 m/S 716 mmHg 88%
    11:00 0°C° 0,6 mm 5 m/S 716 mmHg 88%
    12:00 0°C° 0,6 mm 5 m/S 716 mmHg 87%
    13:00 0°C° 0,5 mm 4 m/S 716 mmHg 89%
    14:00 0°C° 0,5 mm 4 m/S 716 mmHg 90%
    15:00 +1°C° 0,5 mm 3 m/S 716 mmHg 92%
    16:00 0°C° 0,1 mm 3 m/S 717 mmHg 92%
    17:00 -1°C° 0,1 mm 3 m/S 718 mmHg 93%
    18:00 -1°C° 0,1 mm 3 m/S 718 mmHg 93%
    19:00 -2°C° 0 mm 2 m/S 719 mmHg 93%
    20:00 -3°C° 0 mm 2 m/S 720 mmHg 93%
    21:00 -3°C° 0 mm 2 m/S 721 mmHg 92%
    22:00 -3°C° 0 mm 2 m/S 721 mmHg 92%
    23:00 -3°C° 0 mm 2 m/S 722 mmHg 93%

    16 Dezember, Samstag

    Zeit Temperatur Niederschläge Wind Luftdruck Luftfeuchtigkeit
    00:00 -3°C° 0 mm 2 m/S 722 mmHg 93%
    01:00 -3°C° 0 mm 2 m/S 723 mmHg 93%
    02:00 -4°C° 0 mm 3 m/S 723 mmHg 93%
    03:00 -2°C° 0 mm 3 m/S 723 mmHg 93%
    04:00 -2°C° 0 mm 3 m/S 724 mmHg 93%
    05:00 -2°C° 0 mm 3 m/S 724 mmHg 93%
    06:00 -2°C° 0 mm 3 m/S 724 mmHg 93%
    07:00 -1°C° 0,3 mm 3 m/S 725 mmHg 93%
    08:00 -2°C° 0,3 mm 4 m/S 725 mmHg 92%
    09:00 -2°C° 0,3 mm 4 m/S 726 mmHg 92%
    10:00 -1°C° 0,5 mm 4 m/S 726 mmHg 92%
    11:00 -1°C° 0,5 mm 4 m/S 726 mmHg 92%
    12:00 -1°C° 0,5 mm 4 m/S 727 mmHg 92%
    13:00 0°C° 0,2 mm 3 m/S 727 mmHg 92%
    14:00 0°C° 0,2 mm 3 m/S 727 mmHg 91%
    15:00 0°C° 0,2 mm 3 m/S 727 mmHg 91%
    16:00 -1°C° 0 mm 3 m/S 728 mmHg 91%
    17:00 -1°C° 0 mm 3 m/S 728 mmHg 92%
    18:00 -2°C° 0 mm 2 m/S 729 mmHg 92%
    19:00 -2°C° 0 mm 3 m/S 729 mmHg 92%
    20:00 -2°C° 0 mm 3 m/S 730 mmHg 92%
    21:00 -2°C° 0 mm 3 m/S 730 mmHg 93%
    22:00 -2°C° 0 mm 3 m/S 731 mmHg 92%
    23:00 -2°C° 0 mm 3 m/S 731 mmHg 92%

    17 Dezember, Sonntag

    Zeit Temperatur Niederschläge Wind Luftdruck Luftfeuchtigkeit
    00:00 -2°C° 0 mm 3 m/S 732 mmHg 92%
    01:00 -2°C° 0 mm 3 m/S 732 mmHg 92%
    02:00 -3°C° 0 mm 2 m/S 733 mmHg 93%
    03:00 -3°C° 0 mm 2 m/S 733 mmHg 93%
    04:00 -3°C° 0 mm 2 m/S 733 mmHg 93%
    05:00 -3°C° 0 mm 2 m/S 734 mmHg 93%
    06:00 -3°C° 0 mm 2 m/S 734 mmHg 93%
    07:00 -3°C° 0 mm 2 m/S 735 mmHg 93%
    08:00 -2°C° 0 mm 3 m/S 736 mmHg 92%
    09:00 -2°C° 0 mm 3 m/S 736 mmHg 91%
    10:00 -1°C° 0 mm 3 m/S 736 mmHg 91%
    11:00 -1°C° 0 mm 3 m/S 737 mmHg 91%
    12:00 0°C° 0 mm 3 m/S 737 mmHg 90%
    13:00 0°C° 0,1 mm 3 m/S 737 mmHg 91%
    14:00 0°C° 0,1 mm 3 m/S 737 mmHg 92%
    15:00 0°C° 0,1 mm 3 m/S 738 mmHg 92%
    16:00 -1°C° 0 mm 3 m/S 738 mmHg 93%
    17:00 -1°C° 0 mm 2 m/S 738 mmHg 93%
    18:00 -2°C° 0 mm 2 m/S 738 mmHg 94%
    19:00 -2°C° 0 mm 2 m/S 739 mmHg 94%
    20:00 -3°C° 0 mm 2 m/S 739 mmHg 94%
    21:00 -3°C° 0 mm 2 m/S 739 mmHg 94%
    22:00 -3°C° 0 mm 2 m/S 739 mmHg 94%
    23:00 -4°C° 0 mm 2 m/S 739 mmHg 94%
    Mehr zeigen